Weather History for Stevensville, MD

Change the Weather History Date:

Sunday, October 7, 2012

  Actual Average (KESN) Record (KESN)
Temperature  
Mean Temperature 54 °F -  
Max Temperature 59 °F 73 °F 87 °F (2007)
Min Temperature 50 °F 49 °F 32 °F (1964)
Degree Days  
Heating Degree Days 10    
Growing Degree Days 4 (Base 50)    
Moisture  
Dew Point 43 °F    
Average Humidity 70    
Maximum Humidity 100    
Minimum Humidity 45    
Precipitation  
Precipitation 0.00 in - - ()
Sea Level Pressure  
Sea Level Pressure 30.09 in    
Wind  
Wind Speed 6 mph (North)    
Max Wind Speed 14 mph    
Max Gust Speed 20 mph    
Visibility 9 miles    
Events      
Averages and records for this station are not official NWS values.
T = Trace of Precipitation, MM = Missing Value Source: NWS Daily Summary

Daily Weather History Graph

Daily Weather History Graph

Search for Another Location

Airport:

Trip Planner

Search our weather history database for the weather conditions in past years. The results will help you decide how hot, cold, wet, or windy it might be!

Date:

Astronomy

Oct. 07, 2012 Rise Set
Actual Time 7:07 AM EDT 6:37 PM EDT
Civil Twilight 6:40 AM EDT 7:04 PM EDT
Nautical Twilight 6:09 AM EDT 7:35 PM EDT
Astronomical Twilight 5:38 AM EDT 8:06 PM EDT
Moon 11:49 PM EDT (10/7) 1:41 PM EDT (10/7)
Length of Visible Light 12h 23m
Length of Day
11h 30m
Waning Gibbous, 56% of the Moon is Illuminated
Oct 7
Waning Gibbous
Oct 8
Last Quarter
Oct 15
New
Oct 21
First Quarter
Oct 29
Full

Hourly Weather History & Observations

Time (EDT) Temp. Dew Point Humidity Pressure Visibility Wind Dir Wind Speed Gust Speed Precip Events Conditions
12:17 AM 59.0 °F 41.0 °F 51% 30.04 in 10.0 mi NW 8.1 mph 16.1 mph N/A   Clear
12:38 AM 59.0 °F 41.0 °F 51% 30.04 in 10.0 mi NNW 8.1 mph 16.1 mph N/A   Clear
12:59 AM 59.0 °F 42.8 °F 55% 30.04 in 10.0 mi NNW 9.2 mph - N/A   Clear
1:21 AM 59.0 °F 41.0 °F 51% 30.05 in 10.0 mi NNW 12.7 mph 17.3 mph N/A   Clear
1:42 AM 59.0 °F 37.4 °F 45% 30.04 in 10.0 mi NNW 13.8 mph 19.6 mph N/A   Clear
2:03 AM 57.2 °F 37.4 °F 48% 30.03 in 10.0 mi North 8.1 mph - N/A   Clear
2:25 AM 57.2 °F 37.4 °F 48% 30.03 in 10.0 mi North 10.4 mph 18.4 mph N/A   Clear
2:46 AM 57.2 °F 37.4 °F 48% 30.04 in 10.0 mi North 9.2 mph - N/A   Scattered Clouds
3:07 AM 57.2 °F 37.4 °F 48% 30.05 in 10.0 mi North 8.1 mph 18.4 mph N/A   Mostly Cloudy
3:28 AM 55.4 °F 37.4 °F 51% 30.05 in 10.0 mi NNE 6.9 mph - N/A   Scattered Clouds
3:50 AM 55.4 °F 37.4 °F 51% 30.05 in 10.0 mi NNE 10.4 mph - N/A   Clear
4:11 AM 55.4 °F 37.4 °F 51% 30.05 in 10.0 mi North 10.4 mph - N/A   Clear
4:32 AM 55.4 °F 41.0 °F 58% 30.06 in 10.0 mi NNE 6.9 mph - N/A   Mostly Cloudy
4:54 AM 55.4 °F 41.0 °F 58% 30.07 in 10.0 mi North 4.6 mph - N/A   Overcast
5:15 AM 55.4 °F 37.4 °F 51% 30.06 in 10.0 mi NNE 5.8 mph - N/A   Overcast
5:36 AM 55.4 °F 35.6 °F 47% 30.07 in 10.0 mi NNE 4.6 mph - N/A   Mostly Cloudy
5:58 AM 53.6 °F 35.6 °F 51% 30.08 in 10.0 mi NE 6.9 mph - N/A   Mostly Cloudy
6:19 AM 53.6 °F 37.4 °F 54% 30.08 in 10.0 mi NNE 4.6 mph - N/A   Scattered Clouds
6:40 AM 53.6 °F 37.4 °F 54% 30.08 in 10.0 mi NE 3.5 mph - N/A   Mostly Cloudy
7:02 AM 53.6 °F 37.4 °F 54% 30.09 in 10.0 mi NNE 4.6 mph - N/A   Overcast
7:23 AM 53.6 °F 39.2 °F 58% 30.11 in 10.0 mi NE 3.5 mph - N/A   Mostly Cloudy
7:44 AM 53.6 °F 39.2 °F 58% 30.11 in 10.0 mi Calm Calm - N/A   Mostly Cloudy
8:05 AM 53.6 °F 39.2 °F 58% 30.11 in 10.0 mi NNE 3.5 mph - N/A   Mostly Cloudy
8:27 AM 53.6 °F 39.2 °F 58% 30.11 in 10.0 mi East 5.8 mph - N/A   Overcast
8:48 AM 53.6 °F 39.2 °F 58% 30.10 in 10.0 mi NE 6.9 mph - N/A   Overcast
9:09 AM 53.6 °F 41.0 °F 62% 30.11 in 10.0 mi Calm Calm - N/A   Overcast
9:30 AM 53.6 °F 39.2 °F 58% 30.14 in 10.0 mi Calm Calm - N/A   Overcast
9:52 AM 51.8 °F 42.8 °F 71% 30.15 in 4.0 mi Calm Calm - N/A   Overcast
10:13 AM 51.8 °F 46.4 °F 82% 30.14 in 7.0 mi ENE 3.5 mph - N/A   Overcast
10:34 AM 50.0 °F 46.4 °F 87% 30.12 in 10.0 mi East 5.8 mph - N/A   Overcast
10:55 AM 51.8 °F 46.4 °F 82% 30.12 in 10.0 mi East 4.6 mph - N/A   Overcast
11:17 AM 51.8 °F 46.4 °F 82% 30.13 in 10.0 mi Calm Calm - N/A   Mostly Cloudy
11:38 AM 51.8 °F 46.4 °F 82% 30.12 in 10.0 mi East 4.6 mph - N/A   Mostly Cloudy
11:59 AM 51.8 °F 46.4 °F 82% 30.12 in 10.0 mi ENE 3.5 mph - N/A   Overcast
12:20 PM 53.6 °F 44.6 °F 72% 30.11 in 10.0 mi East 4.6 mph - N/A   Overcast
12:42 PM 53.6 °F 46.4 °F 77% 30.11 in 10.0 mi Calm Calm - N/A   Mostly Cloudy
1:03 PM 53.6 °F 44.6 °F 72% 30.10 in 10.0 mi Calm Calm - N/A   Mostly Cloudy
1:24 PM 51.8 °F 44.6 °F 76% 30.10 in 10.0 mi Calm Calm - N/A   Overcast
1:45 PM 53.6 °F 44.6 °F 72% 30.08 in 10.0 mi Calm Calm - N/A   Overcast
2:28 PM 51.8 °F 44.6 °F 76% 30.07 in 10.0 mi Calm Calm - N/A   Mostly Cloudy
2:49 PM 51.8 °F 44.6 °F 76% 30.05 in 10.0 mi NE 4.6 mph - N/A   Mostly Cloudy
3:10 PM 51.8 °F 42.8 °F 71% 30.05 in 10.0 mi NE 3.5 mph - N/A   Mostly Cloudy
3:53 PM 51.8 °F 42.8 °F 71% 30.05 in 10.0 mi Calm Calm - N/A   Mostly Cloudy
4:35 PM 51.8 °F 42.8 °F 71% 30.02 in 10.0 mi NE 3.5 mph - N/A   Scattered Clouds
4:57 PM 51.8 °F 42.8 °F 71% 30.04 in 10.0 mi Calm Calm - N/A   Mostly Cloudy
5:18 PM 50.0 °F 44.6 °F 82% 30.05 in 5.0 mi Calm Calm - N/A   Overcast
5:39 PM 50.0 °F 48.2 °F 94% 30.07 in 1.5 mi Calm Calm - N/A   Overcast
6:00 PM 50.0 °F 48.2 °F 94% 30.08 in 4.0 mi NNW 3.5 mph - N/A   Overcast
6:22 PM 50.0 °F 48.2 °F 94% 30.09 in 10.0 mi WNW 5.8 mph - N/A   Overcast
6:43 PM 50.0 °F 48.2 °F 94% 30.10 in 3.0 mi WNW 8.1 mph - N/A   Overcast
7:04 PM 50.0 °F 48.2 °F 94% 30.12 in 5.0 mi West 11.5 mph - N/A   Overcast
7:25 PM 50.0 °F 48.2 °F 94% 30.12 in 2.5 mi WNW 11.5 mph - N/A   Overcast
7:47 PM 50.0 °F 50.0 °F 100% 30.12 in 4.0 mi WNW 6.9 mph - N/A   Overcast
8:08 PM 50.0 °F 50.0 °F 100% 30.13 in 7.0 mi West 8.1 mph - N/A   Overcast
8:29 PM 50.0 °F 50.0 °F 100% 30.13 in 7.0 mi WNW 9.2 mph - N/A   Overcast
9:12 PM 51.8 °F 48.2 °F 88% 30.15 in 10.0 mi WNW 6.9 mph - N/A   Overcast
9:33 PM 51.8 °F 48.2 °F 88% 30.15 in 10.0 mi NW 8.1 mph - N/A   Mostly Cloudy
9:54 PM 51.8 °F 46.4 °F 82% 30.15 in 10.0 mi NW 5.8 mph - N/A   Scattered Clouds
10:16 PM 51.8 °F 46.4 °F 82% 30.15 in 10.0 mi NW 5.8 mph - N/A   Clear
10:37 PM 51.8 °F 46.4 °F 82% 30.15 in 10.0 mi WNW 8.1 mph - N/A   Clear
10:58 PM 51.8 °F 44.6 °F 76% 30.15 in 10.0 mi NW 6.9 mph - N/A   Clear
11:19 PM 51.8 °F 44.6 °F 76% 30.15 in 10.0 mi WNW 10.4 mph - N/A   Clear